TimeEDT,TemperatureF,Dew PointF,Humidity,Sea Level PressureIn,VisibilityMPH,Wind Direction,Wind SpeedMPH,Gust SpeedMPH,PrecipitationIn,Events,Conditions,WindDirDegrees,DateUTC
12:15 AM,60.1,52.0,75,30.17,10.0,ESE,3.5,-,N/A,,Clear,110,2013-09-28 04:15:00
12:35 AM,58.5,51.6,78,30.17,10.0,East,3.5,-,N/A,,Clear,100,2013-09-28 04:35:00
12:55 AM,58.1,51.8,80,30.17,10.0,East,5.8,-,N/A,,Clear,100,2013-09-28 04:55:00
1:15 AM,58.1,51.8,80,30.16,10.0,ESE,5.8,-,N/A,,Clear,110,2013-09-28 05:15:00
1:34 AM,57.2,51.8,82,30.16,10.0,ESE,4.6,-,N/A,,Clear,110,2013-09-28 05:34:00
1:55 AM,56.7,51.8,84,30.16,10.0,SE,5.8,-,N/A,,Clear,130,2013-09-28 05:55:00
2:15 AM,56.3,51.8,85,30.16,10.0,ESE,3.5,-,N/A,,Clear,120,2013-09-28 06:15:00
2:34 AM,55.4,52.0,88,30.16,10.0,Calm,Calm,-,N/A,,Clear,0,2013-09-28 06:34:00
2:55 AM,54.3,51.4,90,30.16,10.0,Calm,Calm,-,N/A,,Clear,0,2013-09-28 06:55:00
3:15 AM,54.5,51.8,91,30.15,10.0,East,3.5,-,N/A,,Clear,90,2013-09-28 07:15:00
3:34 AM,53.6,51.1,91,30.15,10.0,East,3.5,-,N/A,,Clear,100,2013-09-28 07:34:00
3:55 AM,53.4,51.3,92,30.15,10.0,East,3.5,-,N/A,,Clear,90,2013-09-28 07:55:00
4:15 AM,53.1,51.3,94,30.15,7.0,Calm,Calm,-,N/A,,Clear,0,2013-09-28 08:15:00
4:34 AM,52.2,50.4,94,30.15,5.0,Calm,Calm,-,N/A,,Clear,0,2013-09-28 08:34:00
4:55 AM,51.6,49.8,94,30.15,4.0,East,3.5,-,N/A,,Clear,90,2013-09-28 08:55:00
5:15 AM,50.7,49.1,94,30.15,5.0,Calm,Calm,-,N/A,,Clear,0,2013-09-28 09:15:00
5:35 AM,51.1,49.8,95,30.15,3.0,Calm,Calm,-,N/A,,Clear,0,2013-09-28 09:35:00
5:55 AM,50.7,49.3,95,30.15,3.0,Calm,Calm,-,N/A,,Clear,0,2013-09-28 09:55:00
6:14 AM,50.4,48.9,95,30.15,1.5,Calm,Calm,-,N/A,,Mist,0,2013-09-28 10:14:00
6:35 AM,50.0,48.6,95,30.15,3.0,Calm,Calm,-,N/A,,Clear,0,2013-09-28 10:35:00
6:55 AM,50.2,48.9,95,30.15,2.5,Calm,Calm,-,N/A,,Clear,0,2013-09-28 10:55:00
7:14 AM,49.5,48.2,95,30.15,2.5,Calm,Calm,-,N/A,,Clear,0,2013-09-28 11:14:00
7:35 AM,50.0,48.6,95,30.15,4.0,Calm,Calm,-,N/A,,Clear,0,2013-09-28 11:35:00
7:54 AM,48.6,46.9,94,30.15,1.0,Calm,Calm,-,N/A,,Mist,0,2013-09-28 11:54:00
8:15 AM,49.5,47.8,94,30.16,0.5,Calm,Calm,-,N/A,Fog,Fog,0,2013-09-28 12:15:00
8:35 AM,51.3,50.0,95,30.16,2.5,Calm,Calm,-,N/A,,Clear,0,2013-09-28 12:35:00
8:54 AM,54.1,52.5,94,30.16,3.0,Calm,Calm,-,N/A,,Clear,0,2013-09-28 12:54:00
9:15 AM,56.8,54.7,92,30.16,7.0,Calm,Calm,-,N/A,,Clear,0,2013-09-28 13:15:00
9:35 AM,59.9,55.0,84,30.16,10.0,South,3.5,-,N/A,,Clear,170,2013-09-28 13:35:00
9:54 AM,61.7,54.1,76,30.17,10.0,South,4.6,-,N/A,,Clear,170,2013-09-28 13:54:00
10:15 AM,63.5,54.5,72,30.17,10.0,South,4.6,-,N/A,,Clear,170,2013-09-28 14:15:00
10:35 AM,65.5,55.0,69,30.17,10.0,South,3.5,-,N/A,,Clear,190,2013-09-28 14:35:00
10:54 AM,67.5,55.2,65,30.16,10.0,South,4.6,-,N/A,,Clear,190,2013-09-28 14:54:00
11:15 AM,69.3,55.2,61,30.16,10.0,South,6.9,-,N/A,,Clear,170,2013-09-28 15:15:00
11:35 AM,71.6,55.6,57,30.15,10.0,South,5.8,-,N/A,,Clear,170,2013-09-28 15:35:00
11:55 AM,72.9,55.6,55,30.15,10.0,South,8.1,-,N/A,,Clear,170,2013-09-28 15:55:00
12:15 PM,74.3,55.8,52,30.14,10.0,South,8.1,-,N/A,,Clear,190,2013-09-28 16:15:00
12:34 PM,75.6,54.9,48,30.13,10.0,South,10.4,-,N/A,,Clear,190,2013-09-28 16:34:00
12:55 PM,76.8,55.2,47,30.12,10.0,SSE,8.1,-,N/A,,Clear,160,2013-09-28 16:55:00
1:15 PM,77.4,53.6,44,30.12,10.0,South,10.4,-,N/A,,Clear,170,2013-09-28 17:15:00
1:35 PM,78.1,52.0,40,30.10,10.0,SSE,10.4,-,N/A,,Clear,160,2013-09-28 17:35:00
1:55 PM,78.4,51.3,39,30.09,10.0,SSE,10.4,16.1,N/A,,Clear,150,2013-09-28 17:55:00
2:14 PM,79.3,50.0,36,30.08,10.0,South,11.5,21.9,N/A,,Clear,170,2013-09-28 18:14:00
2:35 PM,79.2,49.8,36,30.07,10.0,South,8.1,18.4,N/A,,Clear,180,2013-09-28 18:35:00
2:55 PM,80.4,49.5,34,30.06,10.0,South,13.8,19.6,N/A,,Clear,180,2013-09-28 18:55:00
3:14 PM,80.2,50.0,35,30.05,10.0,South,11.5,21.9,N/A,,Clear,180,2013-09-28 19:14:00
3:35 PM,79.2,50.2,36,30.05,10.0,South,12.7,-,N/A,,Clear,170,2013-09-28 19:35:00
3:55 PM,78.8,50.4,37,30.04,10.0,South,9.2,16.1,N/A,,Clear,170,2013-09-28 19:55:00
4:14 PM,79.7,49.6,35,30.03,10.0,South,13.8,19.6,N/A,,Clear,170,2013-09-28 20:14:00
4:35 PM,81.5,49.3,32,30.03,10.0,SSW,12.7,19.6,N/A,,Clear,210,2013-09-28 20:35:00
4:55 PM,80.8,50.0,34,30.03,10.0,South,12.7,-,N/A,,Clear,170,2013-09-28 20:55:00
5:14 PM,80.6,48.7,33,30.03,10.0,South,12.7,23.0,N/A,,Clear,190,2013-09-28 21:14:00
5:35 PM,79.9,49.5,34,30.03,10.0,SSW,12.7,19.6,N/A,,Clear,200,2013-09-28 21:35:00
5:55 PM,79.7,49.8,35,30.02,10.0,South,11.5,17.3,N/A,,Clear,190,2013-09-28 21:55:00
6:15 PM,79.3,49.8,36,30.02,10.0,South,12.7,20.7,N/A,,Clear,190,2013-09-28 22:15:00
6:35 PM,78.4,49.8,37,30.02,10.0,South,9.2,-,N/A,,Clear,170,2013-09-28 22:35:00
6:54 PM,77.4,50.4,39,30.02,10.0,South,9.2,-,N/A,,Clear,180,2013-09-28 22:54:00
7:15 PM,75.0,50.7,42,30.02,10.0,South,6.9,-,N/A,,Clear,180,2013-09-28 23:15:00
7:35 PM,73.4,50.5,45,30.01,10.0,South,6.9,-,N/A,,Clear,170,2013-09-28 23:35:00
7:54 PM,72.9,50.2,45,30.01,10.0,SSE,5.8,-,N/A,,Clear,160,2013-09-28 23:54:00
8:15 PM,72.9,50.4,45,30.00,10.0,SSE,5.8,-,N/A,,Clear,150,2013-09-29 00:15:00
8:35 PM,72.3,50.7,46,30.00,10.0,SE,5.8,-,N/A,,Clear,140,2013-09-29 00:35:00
8:54 PM,71.6,50.9,48,30.00,10.0,SSE,5.8,-,N/A,,Clear,150,2013-09-29 00:54:00
9:15 PM,71.1,51.3,49,30.00,10.0,SSE,5.8,-,N/A,,Clear,160,2013-09-29 01:15:00
9:35 PM,70.9,51.4,50,30.00,10.0,SSE,6.9,-,N/A,,Clear,160,2013-09-29 01:35:00
9:54 PM,70.7,51.4,50,30.00,10.0,South,8.1,-,N/A,,Clear,170,2013-09-29 01:54:00
10:15 PM,69.6,51.6,53,29.99,10.0,South,6.9,-,N/A,,Clear,170,2013-09-29 02:15:00
10:35 PM,67.1,52.0,58,30.00,10.0,South,6.9,-,N/A,,Clear,190,2013-09-29 02:35:00
10:55 PM,66.4,52.7,61,30.00,10.0,South,5.8,-,N/A,,Scattered Clouds,170,2013-09-29 02:55:00
11:15 PM,68.0,52.9,58,30.00,10.0,South,5.8,-,N/A,,Scattered Clouds,170,2013-09-29 03:15:00
11:34 PM,67.3,53.2,61,30.00,10.0,South,4.6,-,N/A,,Clear,180,2013-09-29 03:34:00
11:55 PM,66.9,53.6,62,30.00,10.0,South,6.9,-,N/A,,Scattered Clouds,180,2013-09-29 03:55:00